Kenai, AK

12:02 AM AKST on December 11, 2019 (GMT -0900)
Kenai Municipal

Weather History for PAEN - October, 2019

Change the Weather History Date:

Tuesday, October 29, 2019

  Actual Average Record
Temperature  
Mean Temperature 46 °F -  
Max Temperature 50 °F 35 °F 51 °F (1996)
Min Temperature 42 °F 23 °F -1 °F (1953)
Degree Days  
Heating Degree Days 19    
Moisture  
Dew Point 39 °F    
Average Humidity 78    
Maximum Humidity 90    
Minimum Humidity 66    
Precipitation  
Precipitation 0.13 in - - ()
Sea Level Pressure  
Sea Level Pressure 29.88 in    
Wind  
Wind Speed 6 mph (SE)    
Max Wind Speed 14 mph    
Max Gust Speed -    
Visibility 10 miles    
Events Rain    
Averages and records for this station are not official NWS values.
T = Trace of Precipitation, MM = Missing Value Source: NWS Daily Summary

Daily Weather History Graph

Daily Weather History Graph

Search for Another Location

Airport or City:

Astronomy

Oct. 29, 2019 Rise Set
Actual Time 9:21 AM AKDT 6:14 PM AKDT
Civil Twilight 8:36 AM AKDT 6:59 PM AKDT
Nautical Twilight 7:46 AM AKDT 7:49 PM AKDT
Astronomical Twilight 6:57 AM AKDT 8:38 PM AKDT
Moon 11:29 AM AKDT (10/29) 7:18 PM AKDT (10/29)
Length of Visible Light 10h 23m
Length of Day
8h 52m
Waxing Crescent, 4% of the Moon is Illuminated
Oct 29
Waxing Crescent
Nov 4
First Quarter
Nov 12
Full
Nov 19
Last Quarter
Nov 26
New

Hourly Weather History & Observations

Time (AKDT) Temp. Windchill Dew Point Humidity Pressure Visibility Wind Dir Wind Speed Gust Speed Precip Events Conditions
12:53 AM 42.8 °F 40.1 °F 37.4 °F 81% 29.88 in 10.0 mi East 4.6 mph - N/A Rain Light Rain
1:53 AM 45.0 °F 41.2 °F 36.0 °F 71% 29.89 in 10.0 mi East 6.9 mph - 0.00 in   Overcast
2:53 AM 44.1 °F 39.5 °F 36.0 °F 73% 29.89 in 10.0 mi ESE 8.1 mph - 0.00 in Rain Light Rain
3:53 AM 44.1 °F 40.8 °F 37.0 °F 76% 29.88 in 10.0 mi East 5.8 mph - 0.00 in   Overcast
4:53 AM 44.1 °F - 37.9 °F 79% 29.87 in 10.0 mi Calm Calm - 0.01 in Rain Light Rain
5:53 AM 45.0 °F 41.8 °F 37.0 °F 74% 29.86 in 10.0 mi SE 5.8 mph - 0.00 in   Overcast
6:53 AM 45.0 °F 42.6 °F 37.9 °F 76% 29.87 in 10.0 mi ESE 4.6 mph - 0.00 in Rain Light Rain
7:53 AM 44.1 °F 40.8 °F 39.0 °F 82% 29.87 in 10.0 mi East 5.8 mph - 0.04 in Rain Light Rain
8:53 AM 44.1 °F 40.8 °F 39.9 °F 85% 29.87 in 10.0 mi ESE 5.8 mph - 0.00 in   Overcast
9:53 AM 44.1 °F 40.8 °F 39.9 °F 85% 29.88 in 10.0 mi SSE 5.8 mph - N/A   Overcast
10:53 AM 46.0 °F 42.5 °F 39.0 °F 76% 29.88 in 10.0 mi SSE 6.9 mph - N/A   Overcast
11:53 AM 48.0 °F - 39.0 °F 71% 29.88 in 10.0 mi SSE 10.4 mph - N/A   Scattered Clouds
12:53 PM 48.0 °F - 39.0 °F 71% 29.89 in 10.0 mi SE 5.8 mph - N/A   Overcast
1:53 PM 48.9 °F - 39.9 °F 71% 29.89 in 10.0 mi Calm Calm - N/A   Partly Cloudy
2:53 PM 50.0 °F - 39.0 °F 66% 29.88 in 10.0 mi South 4.6 mph - N/A   Overcast
3:53 PM 48.9 °F - 39.9 °F 71% 29.88 in 10.0 mi South 5.8 mph - N/A   Overcast
4:53 PM 48.2 °F - 41.0 °F 76% 29.86 in 10.0 mi South 11.5 mph - N/A Rain Light Rain
5:53 PM 46.9 °F - 41.0 °F 80% 29.88 in 7.0 mi SSW 13.8 mph - 0.02 in Rain Rain
6:53 PM 46.0 °F 43.9 °F 42.1 °F 86% 29.88 in 10.0 mi ESE 4.6 mph - 0.04 in Rain Light Rain
7:53 PM 45.0 °F 43.5 °F 42.1 °F 90% 29.88 in 10.0 mi SSE 3.5 mph - 0.02 in Rain Light Rain
8:53 PM 45.0 °F 41.8 °F 39.9 °F 82% 29.88 in 10.0 mi ESE 5.8 mph - 0.00 in Rain Light Rain
9:53 PM 45.0 °F 40.6 °F 39.9 °F 82% 29.89 in 10.0 mi SE 8.1 mph - 0.00 in Rain Light Rain
10:53 PM 43.0 °F 39.5 °F 39.9 °F 89% 29.90 in 10.0 mi SE 5.8 mph - 0.00 in   Overcast
11:53 PM 43.0 °F 38.8 °F 39.9 °F 89% 29.91 in 10.0 mi SSE 6.9 mph - N/A   Overcast